Wichita, KS

7:01 AM CST on December 17, 2017 (GMT -0600)
Wichita Eisenhower National Airport

Weather History for KICT - January, 2014

Change the Weather History Date:

Saturday, January 18, 2014

  Actual Average Record
Temperature  
Mean Temperature 42 °F 32 °F  
Max Temperature 57 °F 43 °F 65 °F (1951)
Min Temperature 27 °F 22 °F -12 °F (1930)
Degree Days  
Heating Degree Days 23 33  
Month to date heating degree days 583 594  
Since 1 July heating degree days 2538 2437  
Cooling Degree Days 0 0  
Month to date cooling degree days 0 0  
Year to date cooling degree days 0 0  
Moisture  
Dew Point 21 °F    
Average Humidity 48    
Maximum Humidity 69    
Minimum Humidity 27    
Precipitation  
Precipitation 0.00 in 0.03 in 0.87 in (1979)
Month to date precipitation 0.11 0.43  
Year to date precipitation 0.11 0.43  
Snow  
Snow 0.00 in 0.10 in 12.00 in (1962)
Month to date snowfall 2.9 1.9  
Since 1 July snowfall 6.3 7.5  
Snow Depth 0.00 in    
Sea Level Pressure  
Sea Level Pressure 30.02 in    
Wind  
Wind Speed 15 mph (NW)    
Max Wind Speed 38 mph    
Max Gust Speed 46 mph    
Visibility 10 miles    
Events      
T = Trace of Precipitation, MM = Missing Value Source: NWS Daily Summary

Daily Weather History Graph

Daily Weather History Graph

Search for Another Location

Airport or City:

Trip Planner

Search our weather history database for the weather conditions in past years. The results will help you decide how hot, cold, wet, or windy it might be!

Date:

Astronomy

Jan. 18, 2014 Rise Set
Actual Time 7:42 AM CST 5:38 PM CST
Civil Twilight 7:14 AM CST 6:06 PM CST
Nautical Twilight 6:41 AM CST 6:38 PM CST
Astronomical Twilight 6:10 AM CST 7:10 PM CST
Moon 8:17 PM CST (1/18) 8:46 AM CST (1/18)
Length of Visible Light 10h 52m
Length of Day
9h 55m
Waning Gibbous, 94% of the Moon is Illuminated
Jan 18
Waning Gibbous
Jan 23
Last Quarter
Jan 30
New
Feb 6
First Quarter
Feb 14
Full

Hourly Weather History & Observations

Time (CST) Temp. Windchill Dew Point Humidity Pressure Visibility Wind Dir Wind Speed Gust Speed Precip Events Conditions
12:53 AM 33.1 °F 26.1 °F 16.0 °F 50% 29.99 in 10.0 mi South 8.1 mph - N/A   Mostly Cloudy
1:53 AM 30.9 °F 24.3 °F 17.1 °F 57% 29.96 in 10.0 mi SSW 6.9 mph - N/A   Mostly Cloudy
2:53 AM 28.9 °F 21.1 °F 18.0 °F 64% 29.94 in 10.0 mi SW 8.1 mph - N/A   Clear
3:53 AM 28.0 °F 19.3 °F 18.0 °F 66% 29.92 in 10.0 mi SW 9.2 mph - N/A   Clear
4:53 AM 30.0 °F 21.7 °F 19.9 °F 66% 29.91 in 10.0 mi WSW 9.2 mph - N/A   Clear
5:53 AM 32.0 °F 24.8 °F 21.9 °F 66% 29.91 in 10.0 mi West 8.1 mph - N/A   Clear
6:53 AM 42.1 °F 34.2 °F 21.0 °F 43% 29.90 in 10.0 mi WNW 16.1 mph - N/A   Clear
7:53 AM 42.1 °F 33.9 °F 21.0 °F 43% 29.91 in 10.0 mi WNW 17.3 mph 24.2 mph N/A   Partly Cloudy
8:53 AM 45.0 °F 37.9 °F 21.9 °F 40% 29.94 in 10.0 mi NW 16.1 mph - N/A   Partly Cloudy
9:53 AM 48.9 °F - 24.1 °F 38% 29.96 in 10.0 mi NW 15.0 mph 25.3 mph N/A   Scattered Clouds
10:53 AM 54.0 °F - 24.1 °F 31% 29.97 in 10.0 mi WNW 19.6 mph 26.5 mph N/A   Scattered Clouds
11:53 AM 55.0 °F - 24.1 °F 30% 29.97 in 10.0 mi NNW 24.2 mph 36.8 mph N/A   Scattered Clouds
12:53 PM 55.9 °F - 23.0 °F 28% 29.96 in 10.0 mi NNW 24.2 mph 36.8 mph N/A   Scattered Clouds
1:53 PM 54.0 °F - 21.0 °F 28% 29.97 in 10.0 mi NNW 34.5 mph 42.6 mph N/A   Scattered Clouds
2:53 PM 53.1 °F - 21.9 °F 30% 30.00 in 10.0 mi NNW 33.4 mph 41.4 mph N/A   Scattered Clouds
3:53 PM 53.1 °F - 21.9 °F 30% 30.05 in 10.0 mi NNW 25.3 mph 36.8 mph N/A   Scattered Clouds
4:53 PM 50.0 °F - 21.9 °F 33% 30.09 in 10.0 mi NNW 19.6 mph 35.7 mph N/A   Partly Cloudy
5:53 PM 46.0 °F 39.9 °F 21.9 °F 39% 30.12 in 10.0 mi NNW 13.8 mph 24.2 mph N/A   Partly Cloudy
6:53 PM 43.0 °F 36.8 °F 23.0 °F 45% 30.14 in 10.0 mi NNW 11.5 mph - N/A   Clear
7:53 PM 39.9 °F 32.5 °F 23.0 °F 51% 30.16 in 10.0 mi NNW 12.7 mph - N/A   Clear
8:53 PM 39.0 °F 31.8 °F 23.0 °F 53% 30.17 in 10.0 mi NNW 11.5 mph - N/A   Clear
9:53 PM 37.0 °F 32.4 °F 23.0 °F 57% 30.17 in 10.0 mi North 5.8 mph - N/A   Clear
10:53 PM 30.9 °F 24.3 °F 21.0 °F 67% 30.18 in 10.0 mi WNW 6.9 mph - N/A   Clear
11:53 PM 28.0 °F 22.8 °F 21.0 °F 75% 30.18 in 10.0 mi WNW 4.6 mph - N/A   Clear